Regional Weather Roundup
Issued by NWS Cleveland, OH

Home | Current Version | Previous Version | Text Only | Print | Product List | Glossary Off
Versions: 1 2 3 4 5 6 7 8 9 10 11 12 13 14 15 16 17 18 19 20 21 22 23 24 25 26 27 28 29 30 31 32 33 34 35 36 37 38 39 40 41 42 43 44 45 46 47 48 49 50

000
ASUS41 KCLE 181100
RWRCLE
OHIO REGIONAL WEATHER ROUNDUP
NATIONAL WEATHER SERVICE WILMINGTON, OH
600 AM EST WED JAN 18 2017

NOTE: "FAIR" INDICATES FEW OR NO CLOUDS BELOW 12,000 FEET WITH NO
SIGNIFICANT WEATHER AND/OR OBSTRUCTIONS TO VISIBILITY.

OHZ001>008-015>018-024>027-034-035-043-044-181200-
   NORTHWEST OHIO

CITY           SKY/WX    TMP DP  RH WIND       PRES   REMARKS
DEFIANCE       CLOUDY    37  32  82 W6        30.06R
FINDLAY        CLOUDY    37  33  85 W14       30.05R FOG
TOLEDO EXPRESS CLOUDY    35  35 100 W12       30.03R WCI  27
TOLEDO EXEC    CLOUDY    37  35  92 W13       30.04R
LIMA           CLOUDY    36  34  92 W16       30.06R
$$

OHZ009>014-019>023-028>033-038-089-181200-
   NORTHEAST OHIO

CITY           SKY/WX    TMP DP  RH WIND       PRES   REMARKS
CLE-HOPKINS    FLURRIES  39  35  86 W14       30.04R
CLE-LAKEFRONT  LGT RAIN  36  35  96 W12       30.01R
CUY CO. ARPT   NOT AVBL
LORAIN-ELYRIA  CLOUDY    37  33  85 W9        30.03R FOG
ASHTABULA      CLOUDY    38  37  97 W13       29.98R
AKRON-CANTON   LGT RAIN  42  36  79 W14G23    30.00R
WOOSTER        NOT AVBL
MANSFIELD      CLOUDY    36  34  92 W12G17    30.02R
YOUNGSTOWN     CLOUDY    40  38  93 NW9       29.97R
$$

OHZ042-051>053-060>062-070>072-077>081-181200-
  SOUTHWEST OHIO

CITY           SKY/WX    TMP DP  RH WIND       PRES   REMARKS
CINC-COVINGTON DRIZZLE   39  37  92 W15       30.13R FOG
CINC-LUNKEN    CLOUDY    40  37  89 W9        30.15R
HAMILTON       CLOUDY    38  37  97 W9        30.15R
DAYTON         NOT AVBL
WRIGHT-PAT AFB MOCLDY    37  34  89 W10       30.10R
DAYTON GENERAL CLOUDY    36  34  92 W8        30.11R
WILMINGTON     CLOUDY    37  35  92 W15       30.10R
$$

OHZ036-037-039>041-045>050-054>059-063>069-073>076-082>088-181200-
  CENTRAL AND SOUTHEAST OHIO

CITY           SKY/WX    TMP DP  RH WIND       PRES   REMARKS
COLUMBUS       CLOUDY    40  35  83 W12       30.07R
OSU AIRPORT    CLOUDY    38  35  89 W12       30.07R
BOLTON FIELD   NOT AVBL
RICKENBACK AFB NOT AVBL
NEWARK         CLOUDY    39  35  86 W14G22    30.06R
MARION         CLOUDY    37  33  85 W14       30.06R
LANCASTER      CLOUDY    42  37  82 NW15G21   30.08R
ZANESVILLE     CLOUDY    43  38  82 NW13      30.04R
NEW PHILLY     CLOUDY    41  38  89 NW14G20   30.03R
$$




USA.gov is the U.S. government's official web portal to all federal, state and local government web resources and services.